Weather History for Richmond Hanover County, VA

Change the Weather History Date:

Friday, October 26, 2012

  Actual Average Record
Temperature  
Mean Temperature 65 °F -  
Max Temperature 68 °F 65 °F 80 °F (1978)
Min Temperature 62 °F 44 °F 26 °F (1952)
Growing Degree Days 15 (Base 50)    
Moisture  
Dew Point 61 °F    
Average Humidity 90    
Maximum Humidity 96    
Minimum Humidity 76    
Precipitation  
Precipitation 0.02 in - - ()
Sea Level Pressure  
Sea Level Pressure 30.13 in    
Wind  
Wind Speed 2 mph (NNE)    
Max Wind Speed 7 mph    
Max Gust Speed -    
Visibility 4 miles    
Events Rain    
Averages and records for this station are not official NWS values.
T = Trace of Precipitation, MM = Missing Value Source: NWS Daily Summary

Daily Weather History Graph

Daily Weather History Graph

Search for Another Location

Airport:

Trip Planner

Search our weather history database for the weather conditions in past years. The results will help you decide how hot, cold, wet, or windy it might be!

Date:

Astronomy

Oct. 26, 2012 Rise Set
Actual Time 7:29 AM EDT 6:17 PM EDT
Civil Twilight 7:02 AM EDT 6:44 PM EDT
Nautical Twilight 6:31 AM EDT 7:15 PM EDT
Astronomical Twilight 6:01 AM EDT 7:45 PM EDT
Moon 4:30 PM EDT (10/26) 4:26 AM EDT (10/26)
Length of Visible Light 11h 41m
Length of Day
10h 48m
Waxing Gibbous, 91% of the Moon is Illuminated
Oct 26
Waxing Gibbous
Oct 29
Full
Nov 6
Last Quarter
Nov 13
New
Nov 20
First Quarter

Hourly Weather History & Observations

Time (EDT) Temp. Dew Point Humidity Pressure Visibility Wind Dir Wind Speed Gust Speed Precip Events Conditions
12:43 AM 62.6 °F 60.8 °F 94% 30.16 in 6.0 mi ESE 3.5 mph - N/A   Overcast
12:54 AM 63.0 °F 60.1 °F 90% 30.16 in 5.0 mi ESE 4.6 mph - N/A   Overcast
1:54 AM 63.0 °F 61.0 °F 93% 30.15 in 5.0 mi Calm Calm - N/A   Overcast
2:04 AM 62.6 °F 60.8 °F 94% 30.16 in 5.0 mi Calm Calm - N/A   Overcast
2:33 AM 62.6 °F 60.8 °F 94% 30.16 in 3.0 mi Calm Calm - N/A   Overcast
2:46 AM 62.6 °F 60.8 °F 94% 30.16 in 2.5 mi Calm Calm - N/A   Overcast
2:54 AM 63.0 °F 61.0 °F 93% 30.15 in 2.0 mi Calm Calm - N/A   Overcast
3:11 AM 62.6 °F 60.8 °F 94% 30.16 in 1.8 mi Calm Calm - N/A   Overcast
3:30 AM 62.6 °F 60.8 °F 94% 30.15 in 1.5 mi Calm Calm - N/A   Overcast
3:50 AM 62.6 °F 60.8 °F 94% 30.15 in 2.0 mi Calm Calm - N/A   Overcast
3:54 AM 63.0 °F 61.0 °F 93% 30.15 in 2.0 mi Calm Calm - N/A   Overcast
4:13 AM 62.6 °F 60.8 °F 94% 30.15 in 2.0 mi Calm Calm - N/A   Overcast
4:54 AM 63.0 °F 61.0 °F 93% 30.14 in 2.5 mi Calm Calm - N/A   Overcast
5:54 AM 63.0 °F 61.0 °F 93% 30.15 in 2.0 mi Calm Calm - N/A   Overcast
6:20 AM 62.6 °F 60.8 °F 94% 30.15 in 2.0 mi Calm Calm - N/A   Overcast
6:36 AM 62.6 °F 60.8 °F 94% 30.15 in 1.5 mi North 3.5 mph - N/A   Overcast
6:43 AM 62.6 °F 60.8 °F 94% 30.15 in 1.2 mi North 3.5 mph - N/A   Overcast
6:54 AM 62.1 °F 61.0 °F 96% 30.15 in 1.2 mi Calm Calm - N/A   Overcast
7:34 AM 62.6 °F 60.8 °F 94% 30.16 in 1.8 mi North 4.6 mph - N/A   Overcast
7:54 AM 62.1 °F 61.0 °F 96% 30.17 in 1.2 mi Variable 4.6 mph - N/A   Overcast
8:24 AM 62.6 °F 60.8 °F 94% 30.18 in 1.5 mi NNW 3.5 mph - N/A   Overcast
9:22 AM 62.6 °F 60.8 °F 94% 30.19 in 2.0 mi Variable 3.5 mph - N/A   Overcast
9:47 AM 62.6 °F 60.8 °F 94% 30.19 in 3.0 mi North 3.5 mph - N/A   Overcast
9:54 AM 64.0 °F 62.1 °F 93% 30.19 in 3.0 mi Variable 3.5 mph - N/A   Overcast
10:54 AM 64.9 °F 62.1 °F 90% 30.18 in 6.0 mi Variable 3.5 mph - N/A   Overcast
11:54 AM 64.9 °F 62.1 °F 90% 30.17 in 5.0 mi Variable 5.8 mph - N/A   Overcast
12:54 PM 66.0 °F 62.1 °F 87% 30.13 in 6.0 mi Variable 5.8 mph - N/A   Overcast
1:01 PM 66.2 °F 60.8 °F 83% 30.13 in 6.0 mi Variable 6.9 mph - N/A   Haze
1:21 PM 66.2 °F 62.6 °F 88% 30.12 in 6.0 mi Variable 5.8 mph - N/A   Haze
1:28 PM 66.2 °F 60.8 °F 83% 30.12 in 6.0 mi Variable 3.5 mph - N/A   Haze
1:54 PM 66.9 °F 61.0 °F 81% 30.11 in 7.0 mi ENE 5.8 mph - N/A   Overcast
2:54 PM 68.0 °F 61.0 °F 78% 30.09 in 8.0 mi North 6.9 mph - N/A   Overcast
3:54 PM 68.0 °F 60.1 °F 76% 30.08 in 8.0 mi North 3.5 mph - N/A   Overcast
4:21 PM 68.0 °F 60.8 °F 78% 30.08 in 7.0 mi Variable 3.5 mph - N/A   Partly Cloudy
4:54 PM 68.0 °F 60.1 °F 76% 30.06 in 8.0 mi Variable 3.5 mph - N/A   Mostly Cloudy
5:54 PM 66.9 °F 60.1 °F 79% 30.06 in 8.0 mi Calm Calm - N/A   Overcast
6:54 PM 66.0 °F 60.1 °F 81% 30.07 in 9.0 mi Calm Calm - N/A   Overcast
7:54 PM 64.9 °F 60.1 °F 84% 30.08 in 5.0 mi Calm Calm - 0.00 in Rain Light Rain
8:14 PM 64.4 °F 60.8 °F 88% 30.08 in 4.0 mi Calm Calm - 0.01 in Rain Light Rain
8:35 PM 62.6 °F 60.8 °F 94% 30.08 in 3.0 mi NNW 3.5 mph - 0.02 in Rain Light Rain
8:54 PM 63.0 °F 61.0 °F 93% 30.08 in 5.0 mi Calm Calm - 0.02 in   Overcast
9:54 PM 63.0 °F 61.0 °F 93% 30.06 in 5.0 mi Calm Calm - N/A   Overcast
10:54 PM 62.1 °F 60.1 °F 93% 30.04 in 5.0 mi Calm Calm - N/A   Overcast
11:54 PM 62.1 °F 60.1 °F 93% 30.03 in 6.0 mi Calm Calm - N/A   Overcast